| time (UTC) | temp F | wind direction | speed knots | gust knots | rain 1hr in | rain 24hr in | rain mn in | humidity % | barometer mb |
| 20260504211505 | 60 | 282 | 3.5 | 8.7 | 0.00 | 0.00 | 0.00 | 60 | 1004.8 |
| 20260504210004 | 60 | 298 | 4.3 | 7.0 | 0.00 | 0.00 | 0.00 | 58 | 1004.6 |
| 20260504204503 | 60 | 294 | 3.5 | 8.7 | 0.00 | 0.01 | 0.00 | 60 | 1004.5 |
| 20260504203011 | 60 | 313 | 5.2 | 11.3 | 0.00 | 0.01 | 0.00 | 60 | 1004.4 |
| 20260504201503 | 60 | 244 | 3.5 | 12.2 | 0.00 | 0.01 | 0.00 | 61 | 1004.3 |
| 20260504200003 | 61 | 251 | 4.3 | 15.6 | 0.00 | 0.01 | 0.00 | 60 | 1004.2 |
| 20260504194611 | 60 | 300 | 5.2 | 13.0 | 0.00 | 0.02 | 0.00 | 62 | 1004.1 |
| 20260504193058 | 59 | 213 | 5.2 | 14.8 | 0.00 | 0.02 | 0.00 | 63 | 1004.1 |
| 20260504191557 | 58 | 296 | 7.8 | 13.0 | 0.00 | 0.02 | 0.00 | 65 | 1004.1 |
| 20260504190125 | 58 | 244 | 4.3 | 11.3 | 0.00 | 0.02 | 0.00 | 65 | 1004.4 |
| 20260504184558 | 57 | 315 | 4.3 | 13.9 | 0.00 | 0.04 | 0.00 | 64 | 1004.4 |
| 20260504183052 | 56 | 202 | 5.2 | 10.4 | 0.00 | 0.04 | 0.00 | 66 | 1004.5 |
| 20260504181557 | 56 | 232 | 5.2 | 11.3 | 0.00 | 0.04 | 0.00 | 66 | 1004.7 |
| 20260504180142 | 55 | 219 | 2.6 | 7.8 | 0.00 | 0.04 | 0.00 | 67 | 1004.9 |
| 20260504174551 | 55 | 234 | 5.2 | 10.4 | 0.00 | 0.07 | 0.00 | 65 | 1005.0 |
| 20260504173059 | 55 | 278 | 3.5 | 9.6 | 0.00 | 0.07 | 0.00 | 65 | 1004.9 |
| 20260504171549 | 54 | 254 | 1.7 | 5.2 | 0.00 | 0.07 | 0.00 | 71 | 1004.9 |
| 20260504081542 | 35 | 254 | 0.9 | 3.5 | 0.00 | 0.40 | 0.00 | 82 | 1006.0 |
| 20260504050021 | 38 | 264 | 1.7 | 5.2 | 0.00 | 0.42 | 0.00 | 77 | 1005.1 |
| 20260504044518 | 37 | 298 | 1.7 | 4.3 | 0.00 | 0.42 | 0.00 | 80 | 1004.9 |
| 20260504043016 | 38 | 298 | 0.0 | 1.7 | 0.00 | 0.42 | 0.00 | 77 | 1004.9 |
| 20260504041512 | 40 | 254 | 0.9 | 3.5 | 0.00 | 0.42 | 0.00 | 73 | 1004.8 |
| 20260504040010 | 40 | 296 | 1.7 | 6.1 | 0.00 | 0.42 | 0.00 | 72 | 1004.6 |
| 20260504034508 | 40 | 286 | 3.5 | 7.0 | 0.00 | 0.42 | 0.42 | 71 | 1004.5 |
| 20260504033006 | 40 | 304 | 3.5 | 7.0 | 0.00 | 0.42 | 0.42 | 73 | 1004.4 |
| 20260504031505 | 40 | 288 | 3.5 | 7.0 | 0.00 | 0.42 | 0.42 | 73 | 1004.4 |
| 20260504030003 | 40 | 275 | 3.5 | 7.8 | 0.00 | 0.42 | 0.42 | 73 | 1004.3 |
| 20260504024502 | 41 | 250 | 3.5 | 6.1 | 0.00 | 0.42 | 0.42 | 73 | 1004.1 |
| 20260504023100 | 41 | 298 | 2.6 | 6.1 | 0.00 | 0.42 | 0.42 | 72 | 1004.1 |
| 20260504021611 | 42 | 297 | 3.5 | 7.8 | 0.00 | 0.42 | 0.42 | 71 | 1003.9 |
| 20260504020105 | 42 | 247 | 2.6 | 7.0 | 0.00 | 0.42 | 0.42 | 71 | 1003.8 |
| 20260504014556 | 43 | 293 | 4.3 | 8.7 | 0.00 | 0.42 | 0.42 | 69 | 1003.7 |
| 20260504013102 | 43 | 277 | 4.3 | 8.7 | 0.00 | 0.42 | 0.42 | 69 | 1003.6 |
| 20260504011557 | 44 | 271 | 4.3 | 9.6 | 0.00 | 0.42 | 0.42 | 67 | 1003.4 |
| 20260504010058 | 45 | 300 | 3.5 | 11.3 | 0.00 | 0.42 | 0.42 | 67 | 1003.2 |
| 20260504004555 | 45 | 301 | 4.3 | 10.4 | 0.00 | 0.42 | 0.42 | 67 | 1002.9 |
| 20260504003053 | 46 | 324 | 4.3 | 9.6 | 0.00 | 0.42 | 0.42 | 67 | 1002.7 |
| 20260504001607 | 46 | 317 | 5.2 | 9.6 | 0.00 | 0.42 | 0.42 | 77 | 1002.6 |
| 20260504000048 | 45 | 292 | 0.0 | 0.0 | 0.00 | 0.42 | 0.42 | 91 | 1002.4 |
| 20260503234548 | 46 | 292 | 0.9 | 3.5 | 0.00 | 0.42 | 0.42 | 89 | 1002.2 |
| 20260503233047 | 47 | 289 | 1.7 | 2.6 | 0.00 | 0.42 | 0.42 | 87 | 1002.1 |
| 20260503231552 | 48 | 9 | 0.9 | 2.6 | 0.00 | 0.42 | 0.42 | 84 | 1001.9 |
| 20260503230046 | 48 | 5 | 0.9 | 3.5 | 0.00 | 0.42 | 0.42 | 85 | 1001.8 |
| 20260503224550 | 47 | 302 | 0.9 | 5.2 | 0.00 | 0.42 | 0.42 | 83 | 1001.8 |
| 20260503223045 | 48 | 15 | 2.6 | 6.1 | 0.00 | 0.42 | 0.42 | 83 | 1001.7 |
| 20260503221545 | 48 | 309 | 1.7 | 3.5 | 0.00 | 0.42 | 0.42 | 85 | 1001.6 |
| 20260503220041 | 47 | 345 | 2.6 | 5.2 | 0.00 | 0.42 | 0.42 | 86 | 1001.6 |
| 20260503214547 | 47 | 348 | 1.7 | 8.7 | 0.00 | 0.42 | 0.42 | 88 | 1001.6 |
| 20260503213057 | 46 | 355 | 0.9 | 10.4 | 0.00 | 0.42 | 0.42 | 90 | 1001.7 |